Location: Caltech
(34.1382°N, 118.1253°W)
Time: 01:45:23
(UTC-07:00)

A-11 Canister half - All Passes

Search period start: 20 August 2014 00:00
Search period end: 30 August 2014 00:00
Orbit: 1517 x 1683 km, 47.2° (Epoch: 19 August)

Date Brightness Start Highest point End Pass type
(mag) Time Alt. Az. Time Alt. Az. Time Alt. Az.
20 Aug - 08:50:35 10° SSE 08:56:11 17° ESE 09:01:52 10° E daylight
20 Aug - 10:50:25 10° SW 10:59:50 71° SE 11:09:37 10° ENE daylight
20 Aug - 12:56:00 10° W 13:05:19 50° NNW 13:14:58 10° NE daylight
20 Aug - 15:03:20 10° WNW 15:12:25 39° N 15:21:41 10° ENE daylight
20 Aug - 17:09:14 10° NW 17:19:12 62° NNE 17:29:15 10° ESE daylight
20 Aug - 19:14:35 10° WNW 19:24:14 51° SW 19:33:51 10° SSE daylight
21 Aug - 08:28:25 10° SSE 08:33:25 16° ESE 08:38:28 10° E daylight
21 Aug - 10:27:38 10° SW 10:36:58 67° SE 10:46:40 10° ENE daylight
21 Aug - 12:33:01 10° W 12:42:20 52° NNW 12:52:01 10° NE daylight
21 Aug - 14:40:21 10° WNW 14:49:23 38° N 14:58:38 10° ENE daylight
21 Aug - 16:46:20 10° NW 16:56:14 60° NNE 17:06:14 10° ESE daylight
21 Aug - 18:51:38 10° WNW 19:01:22 55° SW 19:11:06 10° SSE daylight
21 Aug - 21:02:08 10° WSW 21:04:53 11° WSW 21:07:38 10° SW visible
22 Aug - 08:06:22 10° SSE 08:10:38 14° ESE 08:14:57 10° E daylight
22 Aug - 10:04:53 10° SW 10:14:07 63° SE 10:23:44 10° ENE daylight
22 Aug - 12:10:03 10° W 12:19:23 53° NNW 12:29:05 10° NE daylight
22 Aug - 14:17:22 10° WNW 14:26:21 38° N 14:35:34 10° ENE daylight
22 Aug - 16:23:26 10° NW 16:33:16 57° NNE 16:43:14 10° ESE daylight
22 Aug - 18:28:41 10° WNW 18:38:30 58° SW 18:48:20 10° SSE daylight
22 Aug - 20:38:08 10° W 20:42:05 13° WSW 20:46:03 10° SW visible
23 Aug - 07:44:34 10° SE 07:47:52 12° ESE 07:51:13 10° E daylight
23 Aug - 09:42:08 10° SSW 09:51:17 59° SE 10:00:46 10° ENE daylight
23 Aug - 11:47:05 10° WSW 11:56:25 55° NNW 12:06:08 10° NE daylight
23 Aug - 13:54:22 10° WNW 14:03:20 38° N 14:12:31 10° ENE daylight
23 Aug - 16:00:31 10° NW 16:10:18 55° NNE 16:20:12 10° ESE daylight
23 Aug - 18:05:45 10° WNW 18:15:37 62° SW 18:25:32 10° SSE daylight
23 Aug - 20:14:27 10° W 20:19:17 15° WSW 20:24:08 10° SSW visible
24 Aug - 07:23:17 10° SE 07:25:06 11° ESE 07:26:56 10° ESE daylight
24 Aug - 09:19:24 10° SSW 09:28:27 55° SE 09:37:49 10° ENE daylight
24 Aug - 11:24:07 10° WSW 11:33:28 58° NNW 11:43:12 10° NE daylight
24 Aug - 13:31:23 10° WNW 13:40:18 38° N 13:49:29 10° ENE daylight
24 Aug - 15:37:37 10° NW 15:47:19 53° NNE 15:57:10 10° E daylight
24 Aug - 17:42:49 10° WNW 17:52:44 66° SW 18:02:44 10° SE daylight
24 Aug - 19:50:58 10° W 19:56:29 16° WSW 20:02:02 10° SSW visible
25 Aug - 08:56:41 10° SSW 09:05:37 52° SE 09:14:51 10° ENE daylight
25 Aug - 11:01:10 10° WSW 11:10:31 60° NNW 11:20:16 10° NE daylight
25 Aug - 13:08:23 10° WNW 13:17:17 38° N 13:26:26 10° ENE daylight
25 Aug - 15:14:43 10° NW 15:24:20 51° NNE 15:34:08 10° E daylight
25 Aug - 17:19:53 10° WNW 17:29:51 70° SW 17:39:54 10° SE daylight
25 Aug - 19:27:35 10° W 19:33:41 18° WSW 19:39:48 10° SSW daylight
26 Aug - 08:34:00 10° SSW 08:42:48 48° SE 08:51:53 10° ENE daylight
26 Aug - 10:38:14 10° WSW 10:47:35 62° NNW 10:57:20 10° NE daylight
26 Aug - 12:45:24 10° WNW 12:54:16 38° N 13:03:24 10° ENE daylight
26 Aug - 14:51:48 10° NW 15:01:21 50° NNE 15:11:05 10° E daylight
26 Aug - 16:56:59 10° WNW 17:06:58 74° SW 17:17:04 10° SE daylight
26 Aug - 19:04:17 10° W 19:10:52 20° SW 19:17:29 10° SSW daylight
27 Aug - 08:11:19 10° SSW 08:19:59 45° SE 08:28:54 10° ENE daylight
27 Aug - 10:15:18 10° WSW 10:24:40 65° NNW 10:34:25 10° NE daylight
27 Aug - 12:22:24 10° WNW 12:31:15 39° N 12:40:23 10° ENE daylight
27 Aug - 14:28:54 10° NW 14:38:21 48° NNE 14:48:02 10° E daylight
27 Aug - 16:34:04 10° NW 16:44:04 78° SW 16:54:12 10° SE daylight
27 Aug - 18:41:03 10° W 18:48:04 22° SW 18:55:07 10° S daylight
28 Aug - 07:48:40 10° SSW 07:57:10 42° SE 08:05:55 10° ENE daylight
28 Aug - 09:52:23 10° WSW 10:01:45 68° NNW 10:11:30 10° NE daylight
28 Aug - 11:59:24 10° WNW 12:08:14 39° N 12:17:22 10° ENE daylight
28 Aug - 14:05:59 10° NW 14:15:22 47° NNE 14:24:58 10° E daylight
28 Aug - 16:11:10 10° NW 16:21:10 82° SW 16:31:20 10° SE daylight
28 Aug - 18:17:52 10° WNW 18:25:15 24° SW 18:32:41 10° S daylight
29 Aug - 07:26:02 10° SSW 07:34:22 39° SE 07:42:55 10° ENE daylight
29 Aug - 09:29:28 10° WSW 09:38:50 71° NNW 09:48:35 10° NE daylight
29 Aug - 11:36:24 10° WNW 11:45:13 39° N 11:54:21 10° ENE daylight
29 Aug - 13:43:04 10° NW 13:52:22 45° NNE 14:01:54 10° E daylight
29 Aug - 15:48:16 10° NW 15:58:16 86° SW 16:08:27 10° SE daylight
29 Aug - 17:54:43 10° WNW 18:02:25 26° SW 18:10:12 10° S daylight
